Location: Whitehorse
(60.7170°N, 135.0500°W)
Time: 04:11:16
(UTC-08:00)

Envisat - Pass Details

Date: 27 October 2019
Orbit: 764 x 766 km, 98.1° (Epoch: 14 November)

Event Time Altitude Azimuth Distance (km) Brightness Sun altitude
Rises 21:14:58 0° 208° (SSW) 3,227 6.4 -22.4°
Reaches altitude 10° 21:17:48 10° 225° (SW) 2,305 5.8 -22.7°
Maximum altitude 21:21:38 21° 274° (W) 1,666 5.5 -23.2°
Drops below altitude 10° 21:25:30 10° 323° (NW) 2,316 6.2 -23.6°
Sets 21:28:23 0° 339° (NNW) 3,247 6.8 -23.9°
